START_TIME,STEP,MOV.,M34,t_acc.,L5,t_acc.,L18,t_acc.,L14,t_acc.
1979-03-06 18:00:22.330 ,1,1,2.,12.0,1.,12.0,0.,12.0,0.,12.0
1979-03-06 18:00:34.330 ,1,1,1.,12.0,0.,12.0,0.,12.0,0.,12.0
1979-03-06 18:00:46.330 ,0,1,0.,12.0,0.,12.0,0.,12.0,0.,12.0
1979-03-06 18:00:58.330 ,0,1,0.,12.0,0.,12.0,0.,12.0,0.,12.0
1979-03-06 18:01:10.330 ,0,1,0.,12.0,0.,12.0,0.,12.0,0.,12.0
1979-03-06 18:01:22.330 ,0,1,0.,12.0,0.,12.0,0.,12.0,0.,12.0
1979-03-06 18:01:34.330 ,1,1,0.,12.0,0.,12.0,0.,12.0,0.,12.0
1979-03-06 18:01:46.330 ,1,1,0.,12.0,0.,12.0,0.,12.0,0.,12.0
1979-03-06 18:01:58.330 ,2,1,0.,12.0,0.,12.0,0.,12.0,0.,12.0
1979-03-06 18:02:10.330 ,2,1,1.,12.0,0.,12.0,0.,12.0,0.,12.0
1979-03-06 18:02:22.330 ,3,1,1.,12.0,0.,12.0,0.,12.0,0.,12.0
1979-03-06 18:02:34.330 ,3,1,0.,12.0,0.,12.0,0.,12.0,0.,12.0
1979-03-06 18:02:46.330 ,4,1,1.,12.0,0.,12.0,0.,12.0,0.,12.0
1979-03-06 18:02:58.330 ,4,1,1.,12.0,0.,12.0,0.,12.0,0.,12.0
1979-03-06 18:03:10.330 ,5,1,1.,12.0,0.,12.0,0.,12.0,0.,12.0
1979-03-06 18:03:22.330 ,5,1,3.,12.0,0.,12.0,0.,12.0,0.,12.0
1979-03-06 18:03:34.330 ,6,1,1.,12.0,0.,12.0,0.,12.0,0.,12.0
1979-03-06 18:03:46.330 ,6,1,0.,12.0,0.,12.0,0.,12.0,0.,12.0
1979-03-06 18:03:58.330 ,7,1,0.,12.0,0.,12.0,0.,12.0,0.,12.0
1979-03-06 18:04:10.330 ,7,1,0.,12.0,0.,12.0,0.,12.0,0.,12.0
1979-03-06 18:04:22.330 ,7,1,0.,12.0,0.,12.0,0.,12.0,1.,12.0
1979-03-06 18:04:34.330 ,7,1,0.,12.0,0.,12.0,0.,12.0,0.,12.0
1979-03-06 18:04:46.330 ,6,1,0.,12.0,0.,12.0,0.,12.0,0.,12.0
1979-03-06 18:04:58.330 ,6,1,0.,12.0,0.,12.0,0.,12.0,0.,12.0
1979-03-06 18:05:10.330 ,5,1,0.,12.0,0.,12.0,0.,12.0,0.,12.0
1979-03-06 18:05:22.330 ,5,1,0.,12.0,0.,12.0,0.,12.0,0.,12.0
1979-03-06 18:05:34.330 ,4,1,1.,12.0,0.,12.0,0.,12.0,0.,12.0
1979-03-06 18:05:46.330 ,4,1,2.,12.0,1.,12.0,0.,12.0,0.,12.0
1979-03-06 18:05:58.330 ,3,1,1.,12.0,0.,12.0,0.,12.0,0.,12.0
1979-03-06 18:06:10.330 ,3,1,4.,12.0,0.,12.0,0.,12.0,0.,12.0
1979-03-06 18:06:22.330 ,2,1,1.,12.0,0.,12.0,0.,12.0,0.,12.0
1979-03-06 18:06:34.330 ,2,1,0.,12.0,0.,12.0,0.,12.0,0.,12.0
1979-03-06 18:06:46.330 ,1,1,0.,12.0,0.,12.0,0.,12.0,0.,12.0
1979-03-06 18:06:58.330 ,1,1,0.,12.0,0.,12.0,0.,12.0,0.,12.0
1979-03-06 18:07:10.330 ,0,1,0.,12.0,0.,12.0,0.,12.0,0.,12.0
1979-03-06 18:07:22.330 ,0,1,0.,12.0,0.,12.0,0.,12.0,0.,12.0
1979-03-06 18:07:34.330 ,0,1,0.,12.0,0.,12.0,0.,12.0,0.,12.0
1979-03-06 18:07:46.330 ,0,1,0.,12.0,0.,12.0,0.,12.0,0.,12.0
1979-03-06 18:07:58.330 ,1,1,0.,12.0,0.,12.0,0.,12.0,0.,12.0
1979-03-06 18:08:10.330 ,1,1,0.,12.0,0.,12.0,0.,12.0,0.,12.0
1979-03-06 18:08:22.330 ,2,1,0.,12.0,0.,12.0,0.,12.0,0.,12.0
1979-03-06 18:08:34.330 ,2,1,1.,12.0,0.,12.0,0.,12.0,0.,12.0
1979-03-06 18:08:46.330 ,3,1,0.,12.0,1.,12.0,0.,12.0,1.,12.0
1979-03-06 18:08:58.330 ,3,1,0.,12.0,0.,12.0,0.,12.0,0.,12.0
1979-03-06 18:09:10.330 ,4,1,1.,12.0,1.,12.0,0.,12.0,0.,12.0
1979-03-06 18:09:22.330 ,4,1,4.,12.0,1.,12.0,0.,12.0,0.,12.0
1979-03-06 18:09:34.330 ,5,1,4.,12.0,0.,12.0,0.,12.0,0.,12.0
1979-03-06 18:09:46.330 ,5,1,3.,12.0,0.,12.0,0.,12.0,0.,12.0
1979-03-06 18:09:58.330 ,6,1,1.,12.0,0.,12.0,0.,12.0,0.,12.0
1979-03-06 18:10:10.330 ,6,1,2.,12.0,0.,12.0,0.,12.0,0.,12.0
1979-03-06 18:10:22.330 ,7,1,0.,12.0,0.,12.0,0.,12.0,0.,12.0
1979-03-06 18:10:34.330 ,7,1,0.,12.0,0.,12.0,0.,12.0,0.,12.0
1979-03-06 18:10:46.330 ,7,1,0.,12.0,0.,12.0,0.,12.0,0.,12.0
1979-03-06 18:10:58.330 ,7,1,0.,12.0,0.,12.0,0.,12.0,0.,12.0
1979-03-06 18:11:10.330 ,6,1,0.,12.0,0.,12.0,0.,12.0,0.,12.0
1979-03-06 18:11:22.330 ,6,1,0.,12.0,1.,12.0,0.,12.0,0.,12.0
1979-03-06 18:11:34.330 ,5,1,0.,12.0,0.,12.0,0.,12.0,0.,12.0
1979-03-06 18:11:46.330 ,5,1,3.,12.0,0.,12.0,0.,12.0,0.,12.0
1979-03-06 18:11:58.330 ,4,1,1.,12.0,0.,12.0,0.,12.0,0.,12.0
1979-03-06 18:12:10.330 ,4,1,2.,12.0,0.,12.0,0.,12.0,0.,12.0
1979-03-06 18:12:22.330 ,3,1,0.,12.0,0.,12.0,0.,12.0,0.,12.0
1979-03-06 18:12:34.330 ,3,1,3.,12.0,1.,12.0,0.,12.0,0.,12.0
1979-03-06 18:12:46.330 ,2,1,2.,12.0,0.,12.0,0.,12.0,0.,12.0
1979-03-06 18:12:58.330 ,2,1,1.,12.0,0.,12.0,0.,12.0,0.,12.0
1979-03-06 18:13:10.330 ,1,1,0.,12.0,0.,12.0,0.,12.0,0.,12.0
1979-03-06 18:13:22.330 ,1,1,0.,12.0,0.,12.0,0.,12.0,0.,12.0
1979-03-06 18:13:34.330 ,0,1,0.,12.0,0.,12.0,0.,12.0,0.,12.0
1979-03-06 18:13:46.330 ,0,1,0.,12.0,0.,12.0,0.,12.0,0.,12.0
1979-03-06 18:13:58.330 ,0,1,0.,12.0,0.,12.0,0.,12.0,0.,12.0
1979-03-06 18:14:10.330 ,0,1,0.,12.0,0.,12.0,0.,12.0,0.,12.0
1979-03-06 18:14:22.330 ,1,1,0.,12.0,0.,12.0,0.,12.0,0.,12.0
1979-03-06 18:14:34.330 ,1,1,0.,12.0,0.,12.0,0.,12.0,0.,12.0
1979-03-06 18:14:46.330 ,2,1,0.,12.0,0.,12.0,0.,12.0,0.,12.0
1979-03-06 18:14:58.330 ,2,1,0.,12.0,0.,12.0,0.,12.0,0.,12.0
1979-03-06 18:15:10.330 ,3,1,0.,12.0,0.,12.0,0.,12.0,0.,12.0
1979-03-06 18:15:22.330 ,3,1,0.,12.0,0.,12.0,0.,12.0,0.,12.0
1979-03-06 18:15:34.330 ,4,1,1.,12.0,1.,12.0,0.,12.0,0.,12.0
1979-03-06 18:15:46.330 ,4,1,0.,12.0,0.,12.0,0.,12.0,0.,12.0
1979-03-06 18:15:58.330 ,5,1,2.,12.0,0.,12.0,0.,12.0,0.,12.0
1979-03-06 18:16:10.330 ,5,1,1.,12.0,0.,12.0,0.,12.0,0.,12.0
1979-03-06 18:16:22.330 ,6,1,3.,12.0,0.,12.0,0.,12.0,0.,12.0
1979-03-06 18:16:34.330 ,6,1,2.,12.0,0.,12.0,0.,12.0,0.,12.0
1979-03-06 18:16:46.330 ,7,1,0.,12.0,0.,12.0,0.,12.0,0.,12.0
1979-03-06 18:16:58.330 ,7,1,1.,12.0,1.,12.0,0.,12.0,0.,12.0
1979-03-06 18:17:10.330 ,7,1,0.,12.0,0.,12.0,0.,12.0,0.,12.0
1979-03-06 18:17:22.330 ,7,1,0.,12.0,0.,12.0,0.,12.0,0.,12.0
1979-03-06 18:17:34.330 ,6,1,0.,12.0,0.,12.0,0.,12.0,0.,12.0
1979-03-06 18:17:46.330 ,6,1,0.,12.0,0.,12.0,0.,12.0,0.,12.0
1979-03-06 18:17:58.330 ,5,1,1.,12.0,0.,12.0,0.,12.0,0.,12.0
1979-03-06 18:18:10.330 ,5,1,3.,12.0,1.,12.0,0.,12.0,1.,12.0
1979-03-06 18:18:22.330 ,4,1,2.,12.0,0.,12.0,0.,12.0,0.,12.0
1979-03-06 18:18:34.330 ,4,1,1.,12.0,0.,12.0,0.,12.0,0.,12.0
1979-03-06 18:18:46.330 ,3,1,3.,12.0,1.,12.0,0.,12.0,0.,12.0
1979-03-06 18:18:58.330 ,3,1,0.,12.0,0.,12.0,0.,12.0,0.,12.0
1979-03-06 18:19:10.330 ,2,1,0.,12.0,1.,12.0,0.,12.0,1.,12.0
1979-03-06 18:19:22.330 ,2,1,0.,12.0,1.,12.0,0.,12.0,0.,12.0
1979-03-06 18:19:34.330 ,1,1,0.,12.0,0.,12.0,0.,12.0,0.,12.0
1979-03-06 18:19:46.330 ,1,1,2.,12.0,0.,12.0,0.,12.0,0.,12.0
1979-03-06 18:19:58.330 ,0,1,1.,12.0,0.,12.0,0.,12.0,0.,12.0
1979-03-06 18:20:10.330 ,0,1,0.,12.0,0.,12.0,0.,12.0,0.,12.0
1979-03-06 18:20:22.330 ,0,1,0.,12.0,0.,12.0,0.,12.0,0.,12.0
1979-03-06 18:20:34.330 ,0,1,0.,12.0,0.,12.0,0.,12.0,0.,12.0
1979-03-06 18:20:46.330 ,1,1,1.,12.0,0.,12.0,0.,12.0,0.,12.0
1979-03-06 18:20:58.330 ,1,1,1.,12.0,0.,12.0,0.,12.0,0.,12.0
1979-03-06 18:21:10.330 ,2,1,2.,12.0,1.,12.0,0.,12.0,0.,12.0
1979-03-06 18:21:22.330 ,2,1,1.,12.0,0.,12.0,0.,12.0,1.,12.0
1979-03-06 18:21:34.330 ,3,1,0.,12.0,2.,12.0,0.,12.0,0.,12.0
1979-03-06 18:21:46.330 ,3,1,0.,12.0,0.,12.0,0.,12.0,1.,12.0
1979-03-06 18:21:58.330 ,4,1,0.,12.0,0.,12.0,0.,12.0,1.,12.0
1979-03-06 18:22:10.330 ,4,1,2.,12.0,0.,12.0,0.,12.0,0.,12.0
1979-03-06 18:22:22.330 ,5,1,0.,12.0,0.,12.0,0.,12.0,0.,12.0
1979-03-06 18:22:34.330 ,5,1,0.,12.0,0.,12.0,0.,12.0,0.,12.0
1979-03-06 18:22:46.330 ,6,1,0.,12.0,0.,12.0,0.,12.0,0.,12.0
1979-03-06 18:22:58.330 ,6,1,0.,12.0,0.,12.0,0.,12.0,0.,12.0
1979-03-06 18:23:10.330 ,7,1,0.,12.0,0.,12.0,0.,12.0,0.,12.0
1979-03-06 18:23:22.330 ,7,1,0.,12.0,0.,12.0,0.,12.0,0.,12.0
1979-03-06 18:23:34.330 ,7,1,0.,12.0,0.,12.0,0.,12.0,0.,12.0
1979-03-06 18:23:46.330 ,7,1,0.,12.0,0.,12.0,0.,12.0,0.,12.0
1979-03-06 18:23:58.330 ,6,1,0.,12.0,0.,12.0,0.,12.0,0.,12.0
1979-03-06 18:24:10.330 ,6,1,0.,12.0,1.,12.0,0.,12.0,0.,12.0
1979-03-06 18:24:22.330 ,5,1,1.,12.0,0.,12.0,0.,12.0,1.,12.0
1979-03-06 18:24:34.330 ,5,1,0.,12.0,0.,12.0,0.,12.0,0.,12.0
1979-03-06 18:24:46.330 ,4,1,0.,12.0,0.,12.0,0.,12.0,0.,12.0
1979-03-06 18:24:58.330 ,4,1,1.,12.0,1.,12.0,0.,12.0,0.,12.0
1979-03-06 18:25:10.330 ,3,1,1.,12.0,0.,12.0,0.,12.0,0.,12.0
1979-03-06 18:25:22.330 ,3,1,0.,12.0,2.,12.0,0.,12.0,0.,12.0
1979-03-06 18:25:34.330 ,2,1,2.,12.0,0.,12.0,0.,12.0,0.,12.0
1979-03-06 18:25:46.330 ,2,1,2.,12.0,0.,12.0,0.,12.0,0.,12.0
1979-03-06 18:25:58.330 ,1,1,0.,12.0,0.,12.0,0.,12.0,0.,12.0
1979-03-06 18:26:10.330 ,1,1,0.,12.0,0.,12.0,0.,12.0,0.,12.0
1979-03-06 18:26:22.330 ,0,1,0.,12.0,1.,12.0,0.,12.0,0.,12.0
1979-03-06 18:26:34.330 ,0,1,1.,12.0,0.,12.0,0.,12.0,0.,12.0
1979-03-06 18:26:46.330 ,0,1,0.,12.0,0.,12.0,0.,12.0,0.,12.0
1979-03-06 18:26:58.330 ,0,1,0.,12.0,0.,12.0,0.,12.0,0.,12.0
1979-03-06 18:27:10.330 ,1,1,0.,12.0,0.,12.0,0.,12.0,0.,12.0
1979-03-06 18:27:22.330 ,1,1,0.,12.0,0.,12.0,0.,12.0,0.,12.0
1979-03-06 18:27:34.330 ,2,1,0.,12.0,0.,12.0,0.,12.0,1.,12.0
1979-03-06 18:27:46.330 ,2,1,0.,12.0,0.,12.0,0.,12.0,0.,12.0
1979-03-06 18:27:58.330 ,3,1,0.,12.0,0.,12.0,0.,12.0,0.,12.0
1979-03-06 18:28:10.330 ,3,1,1.,12.0,0.,12.0,0.,12.0,0.,12.0
1979-03-06 18:28:22.330 ,4,1,0.,12.0,0.,12.0,0.,12.0,0.,12.0
1979-03-06 18:28:34.330 ,4,1,0.,12.0,0.,12.0,0.,12.0,0.,12.0
1979-03-06 18:28:46.330 ,5,1,0.,12.0,0.,12.0,0.,12.0,1.,12.0
1979-03-06 18:28:58.330 ,5,1,1.,12.0,0.,12.0,0.,12.0,0.,12.0
1979-03-06 18:29:10.330 ,6,1,0.,12.0,0.,12.0,0.,12.0,0.,12.0
1979-03-06 18:29:22.330 ,6,1,0.,12.0,0.,12.0,0.,12.0,0.,12.0
1979-03-06 18:29:34.330 ,7,1,0.,12.0,0.,12.0,0.,12.0,0.,12.0
1979-03-06 18:29:46.330 ,7,1,1.,12.0,0.,12.0,0.,12.0,0.,12.0
1979-03-06 18:29:58.330 ,7,1,0.,12.0,0.,12.0,0.,12.0,0.,12.0
1979-03-06 18:30:10.330 ,7,1,0.,12.0,0.,12.0,0.,12.0,0.,12.0
1979-03-06 18:30:46.330 ,5,1,0.,12.0,0.,12.0,0.,12.0,0.,12.0
1979-03-06 18:30:58.330 ,5,1,1.,12.0,0.,12.0,0.,12.0,0.,12.0
1979-03-06 18:31:10.330 ,4,1,0.,12.0,0.,12.0,0.,12.0,0.,12.0
1979-03-06 18:31:22.330 ,4,1,0.,12.0,0.,12.0,0.,12.0,0.,12.0
1979-03-06 18:31:34.330 ,3,1,2.,12.0,1.,12.0,0.,12.0,0.,12.0
1979-03-06 18:31:46.330 ,3,1,1.,12.0,0.,12.0,0.,12.0,0.,12.0
1979-03-06 18:31:58.330 ,2,1,0.,12.0,0.,12.0,0.,12.0,0.,12.0
1979-03-06 18:32:10.330 ,2,1,0.,12.0,0.,12.0,0.,12.0,0.,12.0
1979-03-06 18:32:22.330 ,1,1,0.,12.0,0.,12.0,0.,12.0,0.,12.0
1979-03-06 18:32:34.330 ,1,1,0.,12.0,0.,12.0,0.,12.0,0.,12.0
1979-03-06 18:32:46.330 ,0,1,0.,12.0,0.,12.0,0.,12.0,0.,12.0
1979-03-06 18:32:58.330 ,0,1,1.,12.0,0.,12.0,0.,12.0,0.,12.0
1979-03-06 18:33:10.330 ,0,1,0.,12.0,0.,12.0,0.,12.0,0.,12.0
1979-03-06 18:33:22.330 ,0,1,0.,12.0,0.,12.0,0.,12.0,0.,12.0
1979-03-06 18:33:34.330 ,1,1,0.,12.0,0.,12.0,0.,12.0,0.,12.0
1979-03-06 18:33:46.330 ,1,1,0.,12.0,0.,12.0,0.,12.0,0.,12.0
1979-03-06 18:33:58.330 ,2,1,0.,12.0,0.,12.0,0.,12.0,0.,12.0
1979-03-06 18:34:10.330 ,2,1,0.,12.0,0.,12.0,0.,12.0,0.,12.0
1979-03-06 18:34:22.330 ,3,1,0.,12.0,0.,12.0,0.,12.0,0.,12.0
1979-03-06 18:34:34.330 ,3,1,2.,12.0,0.,12.0,0.,12.0,0.,12.0
1979-03-06 18:34:46.330 ,4,1,4.,12.0,1.,12.0,0.,12.0,0.,12.0
1979-03-06 18:34:58.330 ,4,1,0.,12.0,0.,12.0,0.,12.0,0.,12.0
1979-03-06 18:35:10.330 ,5,1,3.,12.0,0.,12.0,0.,12.0,1.,12.0
1979-03-06 18:35:22.330 ,5,1,3.,12.0,0.,12.0,0.,12.0,0.,12.0
1979-03-06 18:35:34.330 ,6,1,0.,12.0,0.,12.0,0.,12.0,0.,12.0
1979-03-06 18:35:46.330 ,6,1,0.,12.0,0.,12.0,0.,12.0,0.,12.0
1979-03-06 18:35:58.330 ,7,1,0.,12.0,0.,12.0,0.,12.0,0.,12.0
1979-03-06 18:36:10.330 ,7,1,0.,12.0,0.,12.0,0.,12.0,0.,12.0
1979-03-06 18:36:22.330 ,7,1,0.,12.0,0.,12.0,0.,12.0,0.,12.0
1979-03-06 18:36:34.330 ,7,1,0.,12.0,0.,12.0,0.,12.0,0.,12.0
1979-03-06 18:36:46.330 ,6,1,0.,12.0,0.,12.0,0.,12.0,0.,12.0
1979-03-06 18:36:58.330 ,6,1,0.,12.0,0.,12.0,0.,12.0,0.,12.0
1979-03-06 18:37:10.330 ,5,1,0.,12.0,0.,12.0,0.,12.0,0.,12.0
1979-03-06 18:37:22.330 ,5,1,0.,12.0,0.,12.0,0.,12.0,0.,12.0
1979-03-06 18:37:34.330 ,4,1,0.,12.0,0.,12.0,0.,12.0,1.,12.0
1979-03-06 18:37:46.330 ,4,1,0.,12.0,0.,12.0,0.,12.0,0.,12.0
1979-03-06 18:37:58.330 ,3,1,1.,12.0,0.,12.0,0.,12.0,0.,12.0
1979-03-06 18:38:10.330 ,3,1,0.,12.0,1.,12.0,0.,12.0,0.,12.0
1979-03-06 18:38:22.330 ,0,1,0.,12.0,0.,12.0,0.,12.0,0.,12.0
1979-03-06 18:38:34.330 ,0,1,0.,12.0,0.,12.0,0.,12.0,1.,12.0
1979-03-06 18:38:46.330 ,2,1,0.,12.0,0.,12.0,0.,12.0,0.,12.0
1979-03-06 18:38:58.330 ,2,1,1.,12.0,0.,12.0,0.,12.0,0.,12.0
1979-03-06 18:39:10.330 ,6,1,0.,12.0,0.,12.0,0.,12.0,0.,12.0
1979-03-06 18:39:22.330 ,6,1,0.,12.0,0.,12.0,0.,12.0,0.,12.0
1979-03-06 18:39:34.330 ,5,1,0.,12.0,0.,12.0,0.,12.0,0.,12.0
1979-03-06 18:39:46.330 ,5,1,0.,12.0,0.,12.0,0.,12.0,0.,12.0
1979-03-06 18:39:58.330 ,1,1,1.,12.0,0.,12.0,0.,12.0,0.,12.0
1979-03-06 18:40:10.330 ,1,1,0.,12.0,0.,12.0,0.,12.0,0.,12.0
1979-03-06 18:40:22.330 ,2,1,0.,12.0,0.,12.0,0.,12.0,0.,12.0
1979-03-06 18:40:34.330 ,2,1,0.,12.0,0.,12.0,0.,12.0,0.,12.0
1979-03-06 18:40:46.330 ,6,1,0.,12.0,0.,12.0,0.,12.0,0.,12.0
1979-03-06 18:40:58.330 ,6,1,0.,12.0,0.,12.0,0.,12.0,0.,12.0
1979-03-06 18:41:10.330 ,5,1,0.,12.0,0.,12.0,0.,12.0,0.,12.0
1979-03-06 18:41:22.330 ,5,1,0.,12.0,0.,12.0,0.,12.0,0.,12.0
1979-03-06 18:41:34.330 ,1,1,0.,12.0,0.,12.0,0.,12.0,0.,12.0
1979-03-06 18:41:46.330 ,1,1,1.,12.0,0.,12.0,0.,12.0,0.,12.0
1979-03-06 18:41:58.330 ,2,1,0.,12.0,0.,12.0,0.,12.0,0.,12.0
1979-03-06 18:42:10.330 ,2,1,0.,12.0,1.,12.0,0.,12.0,0.,12.0
1979-03-06 18:42:22.330 ,6,1,0.,12.0,0.,12.0,0.,12.0,0.,12.0
1979-03-06 18:42:34.330 ,6,1,0.,12.0,0.,12.0,0.,12.0,0.,12.0
1979-03-06 18:42:46.330 ,5,1,0.,12.0,0.,12.0,0.,12.0,0.,12.0
1979-03-06 18:42:58.330 ,5,1,0.,12.0,0.,12.0,0.,12.0,0.,12.0
1979-03-06 18:43:10.330 ,1,1,0.,12.0,1.,12.0,0.,12.0,1.,12.0
1979-03-06 18:43:22.330 ,1,1,0.,12.0,0.,12.0,0.,12.0,0.,12.0
1979-03-06 18:43:34.330 ,2,1,0.,12.0,0.,12.0,0.,12.0,0.,12.0
1979-03-06 18:43:46.330 ,2,1,0.,12.0,0.,12.0,0.,12.0,0.,12.0
1979-03-06 18:43:58.330 ,6,1,0.,12.0,0.,12.0,0.,12.0,0.,12.0
1979-03-06 18:44:10.330 ,6,1,0.,12.0,0.,12.0,0.,12.0,0.,12.0
1979-03-06 18:44:22.330 ,5,1,0.,12.0,0.,12.0,0.,12.0,1.,12.0
1979-03-06 18:44:34.330 ,5,1,0.,12.0,0.,12.0,0.,12.0,0.,12.0
1979-03-06 18:44:46.330 ,1,1,0.,12.0,0.,12.0,0.,12.0,0.,12.0
1979-03-06 18:44:58.330 ,1,1,0.,12.0,0.,12.0,0.,12.0,0.,12.0
1979-03-06 18:45:10.330 ,2,1,0.,12.0,0.,12.0,0.,12.0,0.,12.0
1979-03-06 18:45:22.330 ,2,1,0.,12.0,0.,12.0,0.,12.0,0.,12.0
1979-03-06 18:45:34.330 ,6,1,0.,12.0,0.,12.0,0.,12.0,0.,12.0
1979-03-06 18:45:46.330 ,6,1,1.,12.0,0.,12.0,0.,12.0,0.,12.0
1979-03-06 18:45:58.330 ,5,1,0.,12.0,0.,12.0,0.,12.0,0.,12.0
1979-03-06 18:46:10.330 ,5,1,0.,12.0,0.,12.0,0.,12.0,0.,12.0
1979-03-06 18:46:22.330 ,1,1,0.,12.0,0.,12.0,0.,12.0,0.,12.0
1979-03-06 18:46:34.330 ,1,1,0.,12.0,0.,12.0,0.,12.0,0.,12.0
1979-03-06 18:46:46.330 ,2,1,0.,12.0,0.,12.0,0.,12.0,0.,12.0
1979-03-06 18:46:58.330 ,2,1,0.,12.0,0.,12.0,0.,12.0,0.,12.0
1979-03-06 18:47:10.330 ,6,1,0.,12.0,0.,12.0,0.,12.0,0.,12.0
1979-03-06 18:47:22.330 ,6,1,0.,12.0,0.,12.0,0.,12.0,1.,12.0
1979-03-06 18:47:34.330 ,5,1,0.,12.0,0.,12.0,0.,12.0,0.,12.0
1979-03-06 18:47:46.330 ,5,1,0.,12.0,0.,12.0,0.,12.0,0.,12.0
1979-03-06 18:47:58.330 ,1,1,0.,12.0,0.,12.0,0.,12.0,0.,12.0
1979-03-06 18:48:10.330 ,1,1,0.,12.0,0.,12.0,0.,12.0,0.,12.0
1979-03-06 18:48:22.330 ,2,1,0.,12.0,0.,12.0,0.,12.0,0.,12.0
1979-03-06 18:48:34.330 ,2,1,0.,12.0,0.,12.0,0.,12.0,0.,12.0
1979-03-06 18:48:46.330 ,6,1,0.,12.0,0.,12.0,0.,12.0,0.,12.0
1979-03-06 18:48:58.330 ,6,1,0.,12.0,0.,12.0,0.,12.0,0.,12.0
1979-03-06 18:49:10.330 ,5,1,0.,12.0,0.,12.0,0.,12.0,0.,12.0
1979-03-06 18:49:22.330 ,5,1,0.,12.0,0.,12.0,0.,12.0,0.,12.0
1979-03-06 18:49:34.330 ,1,1,0.,12.0,0.,12.0,0.,12.0,0.,12.0
1979-03-06 18:49:46.330 ,1,1,0.,12.0,0.,12.0,0.,12.0,0.,12.0
1979-03-06 18:49:58.330 ,2,1,0.,12.0,0.,12.0,0.,12.0,0.,12.0
1979-03-06 18:50:10.330 ,2,1,0.,12.0,0.,12.0,0.,12.0,0.,12.0
1979-03-06 18:50:22.330 ,6,1,0.,12.0,0.,12.0,0.,12.0,0.,12.0
1979-03-06 18:50:34.330 ,6,1,0.,12.0,0.,12.0,0.,12.0,2.,12.0
1979-03-06 18:50:46.330 ,5,1,0.,12.0,0.,12.0,0.,12.0,0.,12.0
1979-03-06 18:50:58.330 ,5,1,0.,12.0,0.,12.0,0.,12.0,0.,12.0
1979-03-06 18:51:10.330 ,1,1,0.,12.0,0.,12.0,0.,12.0,0.,12.0
1979-03-06 18:51:22.330 ,1,1,0.,12.0,0.,12.0,0.,12.0,0.,12.0
1979-03-06 18:51:34.330 ,2,1,0.,12.0,0.,12.0,0.,12.0,0.,12.0
1979-03-06 18:51:46.330 ,2,1,0.,12.0,0.,12.0,0.,12.0,0.,12.0
1979-03-06 18:51:58.330 ,6,1,0.,12.0,0.,12.0,0.,12.0,0.,12.0
1979-03-06 18:52:10.330 ,6,1,0.,12.0,0.,12.0,0.,12.0,0.,12.0
1979-03-06 18:52:22.330 ,5,1,0.,12.0,0.,12.0,0.,12.0,0.,12.0
1979-03-06 18:52:34.330 ,5,1,0.,12.0,0.,12.0,0.,12.0,1.,12.0
1979-03-06 18:52:46.330 ,1,1,0.,12.0,0.,12.0,0.,12.0,1.,12.0
1979-03-06 18:52:58.330 ,1,1,0.,12.0,0.,12.0,0.,12.0,0.,12.0
1979-03-06 18:53:10.330 ,2,1,0.,12.0,0.,12.0,0.,12.0,0.,12.0
1979-03-06 18:53:22.330 ,2,1,0.,12.0,0.,12.0,0.,12.0,0.,12.0
1979-03-06 18:53:34.330 ,6,1,0.,12.0,0.,12.0,0.,12.0,0.,12.0
1979-03-06 18:53:46.330 ,6,1,0.,12.0,0.,12.0,0.,12.0,0.,12.0
1979-03-06 18:53:58.330 ,0,0,0.,12.0,0.,12.0,0.,12.0,0.,12.0
1979-03-06 18:54:10.330 ,0,0,,0,,0,,0,,0
1979-03-06 18:54:28.330 ,0,0,,0,,0,,0,,0
1979-03-06 18:54:40.330 ,0,0,0.,12.0,0.,12.0,0.,12.0,0.,12.0
1979-03-06 18:54:46.330 ,2,1,0.,12.0,0.,12.0,0.,12.0,0.,12.0
1979-03-06 18:54:58.330 ,2,1,0.,12.0,0.,12.0,0.,12.0,0.,12.0
1979-03-06 18:55:10.330 ,6,1,0.,12.0,0.,12.0,0.,12.0,0.,12.0
1979-03-06 18:55:22.330 ,6,1,0.,12.0,0.,12.0,0.,12.0,0.,12.0
1979-03-06 18:55:34.330 ,5,1,0.,12.0,0.,12.0,0.,12.0,0.,12.0
1979-03-06 18:55:46.330 ,5,1,0.,12.0,0.,12.0,0.,12.0,0.,12.0
1979-03-06 18:55:58.330 ,1,1,0.,12.0,0.,12.0,0.,12.0,0.,12.0
1979-03-06 18:56:10.330 ,1,1,0.,12.0,0.,12.0,0.,12.0,0.,12.0
1979-03-06 18:56:22.330 ,2,1,0.,12.0,0.,12.0,0.,12.0,0.,12.0
1979-03-06 18:56:34.330 ,2,1,0.,12.0,0.,12.0,0.,12.0,0.,12.0
1979-03-06 18:56:46.330 ,6,1,0.,12.0,0.,12.0,0.,12.0,0.,12.0
1979-03-06 18:56:58.330 ,6,1,0.,12.0,0.,12.0,0.,12.0,0.,12.0
1979-03-06 18:57:10.330 ,5,1,0.,12.0,0.,12.0,0.,12.0,0.,12.0
1979-03-06 18:57:22.330 ,5,1,0.,12.0,0.,12.0,0.,12.0,0.,12.0
1979-03-06 18:57:34.340 ,1,1,0.,12.0,0.,12.0,0.,12.0,0.,12.0
1979-03-06 18:57:46.340 ,1,1,0.,12.0,0.,12.0,0.,12.0,0.,12.0
1979-03-06 18:57:58.340 ,2,1,0.,12.0,0.,12.0,0.,12.0,0.,12.0
1979-03-06 18:58:10.340 ,2,1,0.,12.0,0.,12.0,0.,12.0,0.,12.0
1979-03-06 18:58:22.340 ,6,1,0.,12.0,0.,12.0,0.,12.0,0.,12.0
1979-03-06 18:58:34.340 ,6,1,0.,12.0,0.,12.0,0.,12.0,0.,12.0
1979-03-06 18:58:46.340 ,5,1,0.,12.0,0.,12.0,0.,12.0,0.,12.0
1979-03-06 18:58:58.340 ,5,1,0.,12.0,0.,12.0,0.,12.0,0.,12.0
1979-03-06 18:59:10.340 ,1,1,0.,12.0,0.,12.0,0.,12.0,0.,12.0
1979-03-06 18:59:22.340 ,1,1,0.,12.0,0.,12.0,0.,12.0,0.,12.0
1979-03-06 18:59:34.340 ,2,1,0.,12.0,0.,12.0,0.,12.0,0.,12.0
1979-03-06 18:59:46.340 ,2,1,0.,12.0,0.,12.0,0.,12.0,0.,12.0
1979-03-06 18:59:58.340 ,6,1,0.,12.0,0.,12.0,0.,12.0,0.,12.0
1979-03-06 19:00:10.340 ,6,1,0.,12.0,0.,12.0,0.,12.0,0.,12.0
1979-03-06 19:00:22.340 ,5,1,0.,12.0,0.,12.0,0.,12.0,0.,12.0
1979-03-06 19:00:34.340 ,5,1,0.,12.0,0.,12.0,0.,12.0,0.,12.0
1979-03-06 19:00:46.340 ,1,1,0.,12.0,0.,12.0,0.,12.0,0.,12.0
1979-03-06 19:00:58.340 ,1,1,0.,12.0,0.,12.0,0.,12.0,0.,12.0
1979-03-06 19:01:10.340 ,2,1,0.,12.0,0.,12.0,0.,12.0,0.,12.0
1979-03-06 19:01:22.340 ,2,1,0.,12.0,0.,12.0,0.,12.0,0.,12.0
1979-03-06 19:01:34.340 ,6,1,0.,12.0,0.,12.0,0.,12.0,0.,12.0
1979-03-06 19:01:46.340 ,6,1,0.,12.0,0.,12.0,0.,12.0,0.,12.0
1979-03-06 19:01:58.340 ,5,1,0.,12.0,0.,12.0,0.,12.0,0.,12.0
1979-03-06 19:02:10.340 ,5,1,0.,12.0,0.,12.0,0.,12.0,0.,12.0
1979-03-06 19:02:22.340 ,1,1,0.,12.0,0.,12.0,0.,12.0,0.,12.0
1979-03-06 19:02:34.340 ,1,1,0.,12.0,0.,12.0,0.,12.0,0.,12.0
1979-03-06 19:02:46.340 ,2,1,0.,12.0,0.,12.0,0.,12.0,0.,12.0
1979-03-06 19:02:58.340 ,2,1,0.,12.0,0.,12.0,0.,12.0,0.,12.0
1979-03-06 19:03:10.340 ,6,1,0.,12.0,0.,12.0,0.,12.0,0.,12.0
1979-03-06 19:03:22.340 ,6,1,0.,12.0,0.,12.0,0.,12.0,0.,12.0
1979-03-06 19:03:34.340 ,5,1,0.,12.0,0.,12.0,0.,12.0,0.,12.0
1979-03-06 19:03:46.340 ,5,1,0.,12.0,0.,12.0,0.,12.0,0.,12.0
1979-03-06 19:03:58.340 ,1,1,0.,12.0,0.,12.0,0.,12.0,0.,12.0
1979-03-06 19:04:10.340 ,1,1,0.,12.0,0.,12.0,0.,12.0,0.,12.0
1979-03-06 19:04:22.340 ,2,1,0.,12.0,0.,12.0,0.,12.0,0.,12.0
1979-03-06 19:04:34.340 ,2,1,0.,12.0,0.,12.0,0.,12.0,0.,12.0
1979-03-06 19:04:46.340 ,6,1,0.,12.0,0.,12.0,0.,12.0,0.,12.0
1979-03-06 19:04:58.340 ,6,1,0.,12.0,0.,12.0,0.,12.0,0.,12.0
1979-03-06 19:05:10.340 ,5,1,0.,12.0,0.,12.0,0.,12.0,1.,12.0
1979-03-06 19:05:22.340 ,5,1,0.,12.0,0.,12.0,0.,12.0,0.,12.0
1979-03-06 19:05:34.340 ,1,1,0.,12.0,0.,12.0,0.,12.0,0.,12.0
1979-03-06 19:05:46.340 ,1,1,0.,12.0,0.,12.0,0.,12.0,0.,12.0
1979-03-06 19:05:58.340 ,2,1,0.,12.0,0.,12.0,0.,12.0,0.,12.0
1979-03-06 19:06:10.340 ,2,1,0.,12.0,0.,12.0,0.,12.0,0.,12.0
1979-03-06 19:06:22.340 ,6,1,0.,12.0,0.,12.0,0.,12.0,0.,12.0
1979-03-06 19:06:34.340 ,6,1,0.,12.0,0.,12.0,0.,12.0,1.,12.0
1979-03-06 19:06:46.340 ,5,1,0.,12.0,0.,12.0,0.,12.0,0.,12.0
1979-03-06 19:06:58.340 ,5,1,0.,12.0,0.,12.0,0.,12.0,1.,12.0
1979-03-06 19:07:10.340 ,1,1,0.,12.0,0.,12.0,0.,12.0,0.,12.0
1979-03-06 19:07:22.340 ,1,1,0.,12.0,0.,12.0,0.,12.0,0.,12.0
1979-03-06 19:07:34.340 ,2,1,0.,12.0,0.,12.0,0.,12.0,0.,12.0
1979-03-06 19:07:46.340 ,2,1,0.,12.0,0.,12.0,0.,12.0,0.,12.0
1979-03-06 19:07:58.340 ,6,1,0.,12.0,0.,12.0,0.,12.0,0.,12.0
1979-03-06 19:08:10.340 ,6,1,0.,12.0,0.,12.0,0.,12.0,0.,12.0
1979-03-06 19:08:22.340 ,5,1,0.,12.0,0.,12.0,0.,12.0,0.,12.0
1979-03-06 19:08:34.340 ,5,1,0.,12.0,0.,12.0,0.,12.0,0.,12.0
1979-03-06 19:08:46.340 ,0,0,0.,12.0,0.,12.0,0.,12.0,0.,12.0
1979-03-06 19:08:58.340 ,0,0,0.,12.0,0.,12.0,0.,12.0,0.,12.0
1979-03-06 19:09:10.340 ,0,0,0.,12.0,0.,12.0,0.,12.0,0.,12.0
1979-03-06 19:09:22.340 ,0,0,0.,12.0,0.,12.0,0.,12.0,0.,12.0
1979-03-06 19:09:34.340 ,6,1,0.,12.0,0.,12.0,0.,12.0,1.,12.0
1979-03-06 19:09:46.340 ,6,1,0.,12.0,0.,12.0,0.,12.0,0.,12.0
1979-03-06 19:09:58.340 ,5,1,0.,12.0,0.,12.0,0.,12.0,1.,12.0
1979-03-06 19:10:10.340 ,5,1,0.,12.0,0.,12.0,0.,12.0,0.,12.0
1979-03-06 19:10:22.340 ,1,1,0.,12.0,0.,12.0,0.,12.0,0.,12.0
1979-03-06 19:10:34.340 ,1,1,0.,12.0,0.,12.0,0.,12.0,0.,12.0
1979-03-06 19:10:46.340 ,2,1,0.,12.0,0.,12.0,0.,12.0,0.,12.0
1979-03-06 19:10:58.340 ,2,1,0.,12.0,0.,12.0,0.,12.0,0.,12.0
1979-03-06 19:11:10.340 ,6,1,0.,12.0,0.,12.0,0.,12.0,0.,12.0
1979-03-06 19:11:22.340 ,6,1,0.,12.0,0.,12.0,0.,12.0,0.,12.0
1979-03-06 19:11:34.340 ,5,1,0.,12.0,0.,12.0,0.,12.0,0.,12.0
1979-03-06 19:11:46.340 ,5,1,0.,12.0,0.,12.0,0.,12.0,0.,12.0
1979-03-06 19:11:58.340 ,1,1,0.,12.0,0.,12.0,0.,12.0,0.,12.0
1979-03-06 19:12:10.340 ,1,1,0.,12.0,0.,12.0,0.,12.0,0.,12.0
1979-03-06 19:12:22.340 ,2,1,0.,12.0,0.,12.0,0.,12.0,0.,12.0
1979-03-06 19:12:34.340 ,2,1,0.,12.0,0.,12.0,0.,12.0,0.,12.0
1979-03-06 19:12:46.340 ,6,1,0.,12.0,0.,12.0,0.,12.0,1.,12.0
1979-03-06 19:12:58.340 ,6,1,0.,12.0,0.,12.0,0.,12.0,1.,12.0
1979-03-06 19:13:10.340 ,5,1,0.,12.0,0.,12.0,0.,12.0,0.,12.0
1979-03-06 19:13:22.340 ,5,1,0.,12.0,0.,12.0,0.,12.0,0.,12.0
1979-03-06 19:13:34.340 ,1,1,0.,12.0,1.,12.0,0.,12.0,0.,12.0
1979-03-06 19:13:46.340 ,1,1,0.,12.0,0.,12.0,0.,12.0,0.,12.0
1979-03-06 19:13:58.340 ,2,1,0.,12.0,0.,12.0,0.,12.0,0.,12.0
1979-03-06 19:14:10.340 ,2,1,0.,12.0,0.,12.0,0.,12.0,0.,12.0
1979-03-06 19:14:22.340 ,6,1,0.,12.0,0.,12.0,0.,12.0,0.,12.0
1979-03-06 19:14:34.340 ,6,1,0.,12.0,0.,12.0,0.,12.0,1.,12.0
1979-03-06 19:14:46.340 ,5,1,0.,12.0,0.,12.0,0.,12.0,0.,12.0
1979-03-06 19:14:58.340 ,5,1,0.,12.0,0.,12.0,0.,12.0,0.,12.0
1979-03-06 19:15:10.340 ,1,1,0.,12.0,0.,12.0,0.,12.0,0.,12.0
1979-03-06 19:15:22.340 ,1,1,0.,12.0,0.,12.0,0.,12.0,0.,12.0
1979-03-06 19:15:34.340 ,2,1,0.,12.0,0.,12.0,0.,12.0,0.,12.0
1979-03-06 19:15:46.340 ,2,1,0.,12.0,0.,12.0,0.,12.0,0.,12.0
1979-03-06 19:15:58.340 ,6,1,0.,12.0,0.,12.0,0.,12.0,0.,12.0
1979-03-06 19:16:10.340 ,6,1,0.,12.0,0.,12.0,0.,12.0,1.,12.0
1979-03-06 19:16:22.340 ,5,1,0.,12.0,0.,12.0,0.,12.0,0.,12.0
1979-03-06 19:16:34.340 ,5,1,0.,12.0,0.,12.0,0.,12.0,0.,12.0
1979-03-06 19:16:46.340 ,1,1,0.,12.0,0.,12.0,0.,12.0,0.,12.0
1979-03-06 19:16:58.340 ,1,1,0.,12.0,0.,12.0,0.,12.0,0.,12.0
1979-03-06 19:17:10.340 ,2,1,0.,12.0,0.,12.0,0.,12.0,0.,12.0
1979-03-06 19:17:22.340 ,2,1,0.,12.0,0.,12.0,0.,12.0,0.,12.0
1979-03-06 19:17:34.340 ,6,1,0.,12.0,0.,12.0,0.,12.0,0.,12.0
1979-03-06 19:17:46.340 ,6,1,0.,12.0,0.,12.0,0.,12.0,0.,12.0